This is the latest recevied weather packets stored in our database for station/object CE7LGA-10. If no packets are shown the sender has not sent any weather packets the latest 10 day(s).
| Time | Temp. | Humidity | Pressure | Rain* | Wind** | Luminosity | Snow |
|---|---|---|---|---|---|---|---|
| 1778117831 | 17.78° C | 62% | 1009.7 hPa | - | - | - | - |
| 1778116931 | 17.78° C | 62% | 1009.5 hPa | - | - | - | - |
| 1778116031 | 17.78° C | 61% | 1009.1 hPa | - | - | - | - |
| 1778115130 | 18.33° C | 61% | 1009 hPa | - | - | - | - |
| 1778114232 | 18.33° C | 61% | 1008.9 hPa | - | - | - | - |
| 1778113332 | 18.89° C | 61% | 1008.6 hPa | - | - | - | - |
| 1778112432 | 18.89° C | 61% | 1008.5 hPa | - | - | - | - |
| 1778111532 | 19.44° C | 61% | 1008.3 hPa | - | - | - | - |
| 1778110632 | 19.44° C | 61% | 1008 hPa | - | - | - | - |
| 1778109731 | 19.44° C | 60% | 1007.7 hPa | - | - | - | - |
| 1778108831 | 20° C | 60% | 1007.5 hPa | - | - | - | - |
| 1778107931 | 20° C | 60% | 1007 hPa | - | - | - | - |
| 1778107031 | 20° C | 60% | 1006.8 hPa | - | - | - | - |
| 1778106131 | 20° C | 59% | 1006.6 hPa | - | - | - | - |
| 1778105231 | 20.56° C | 59% | 1006.2 hPa | - | - | - | - |
| 1778104331 | 21.11° C | 59% | 1005.9 hPa | - | - | - | - |
| 1778103431 | 21.11° C | 59% | 1005.5 hPa | - | - | - | - |
| 1778102531 | 21.11° C | 59% | 1005.2 hPa | - | - | - | - |
| 1778101631 | 21.11° C | 59% | 1005 hPa | - | - | - | - |
| 1778100731 | 21.11° C | 60% | 1004.7 hPa | - | - | - | - |
| 1778099831 | 21.67° C | 60% | 1004.5 hPa | - | - | - | - |
| 1778098930 | 20.56° C | 55% | 1004.1 hPa | - | - | - | - |
| 1778098030 | 21.11° C | 60% | 1003.8 hPa | - | - | - | - |
| 1778097130 | 21.11° C | 61% | 1003.7 hPa | - | - | - | - |
| 1778096230 | 21.11° C | 61% | 1003.3 hPa | - | - | - | - |
* Rain since midnight (hover to see other rain measurements)
** Current wind speed in m/s (hover to see current wind gust speed)